Find Starlink 30823

NORAD ID: 58248 Int'l Des: 2023-171 Owner: SPXS Country: US Constellation: starlink operational
LEOCIRCULAR

現在のビュー

3D地球を読み込み中...

About Starlink 30823

Starlink 30823 (NORAD 58248) is a starlink constellation satellite (v2 mini) launched Nov 8, 2023 by SPXS of US. It operates in LEO, CIRCULAR orbit with a mass of 730.00 kg.

Starlink 30823について

説明を読み込み中...

次回通過

Passes for default location (London). Set your location on the main map for personalized predictions.

高度履歴

Loading altitude history...

軌道要素

1 58248U 23171U 26171.40766073 .00002690 00000-0 10716-3 0 9996
2 58248 43.0006 65.1496 0000603 270.9582 89.1200 15.27599885145442
Epoch: Jun 20, 2026 • Age: 25 hours

現在のステータス

高度 495.6 km
速度 7.62 km/s
衛星直下点 -42.46°S, 109.79°W
打ち上げ日 Nov 8, 2023
運用期間 2.6 years
タイプ internet

技術仕様

分類 Payload
質量 730.00 kg
乾燥質量 700.00 kg
総質量 730.00 kg
長さ 0.30 m
直径 4.10 m
スパン 29.00 m
形状 Box + pan
製造者 SPXS
バスタイプ Starlink V2M
フェーズステータス In Orbit
所有者/国 SPXS/US

Most Searched